#timestamp,LO_Frequency,Hit,StdDev 
1507060815.6,286046999.2,N
1507060835.5,286046999.5,N
1507060855.3,286046999.1,N
1507060875.1,286046999.8,N
1507060895.8,286047001.9,N
1507060915.7,286047002.3,N
1507060935.5,286047000.2,N
1507060955.3,286047002.6,N
1507060975.2,286047001.7,N
1507060995.9,286047008.3,N
1507061015.7,286047009.2,N
1507061035.6,286047002.2,N
1507061055.4,286047004.3,N
1507061075.2,286047000.7,N
1507061095.1,286047000.5,N
1507061096.0,286047000.5,N
1507061115.8,286047001.1,N
1507061135.6,286047000.0,N
1507061155.4,286047000.5,N
1507061175.3,286046999.6,N
1507061195.1,286046997.6,N
1507061215.8,286046995.6,N
1507061235.7,286046994.4,N
1507061255.5,286046991.1,N
1507061275.3,286046990.0,N
1507061295.2,286046990.0,N
1507061315.9,286046987.4,N
1507061335.7,286046989.7,N
1507061355.6,286046991.1,N
1507061375.4,286046991.5,N
1507061395.2,286046989.8,N
1507061415.1,286046990.2,N
1507061416.0,286046990.2,N
1507061435.8,286046988.8,N
1507061455.6,286046990.7,N
1507061475.5,286046993.9,N
1507061495.3,286046991.7,N
1507061515.1,286046992.1,N
1507061535.8,286046990.2,N
1507061555.7,286046988.9,N
1507061575.5,286046989.1,N
1507061595.3,286046991.3,N
1507061615.2,286046991.4,N
1507061635.9,286046991.4,N
1507061655.7,286046992.0,N
1507061675.6,286046993.0,N
1507061695.4,286046994.6,N
1507061715.2,286046994.1,N
1507061735.1,286046993.5,N
1507061736.0,286046993.5,N
1507061755.8,286046994.2,N
1507061775.6,286046991.7,Y
1507061795.5,286047002.3,P
1507061815.3,286046999.9,N
1507061835.1,286047000.1,N
1507061855.9,286046998.6,N
1507061875.7,286047000.7,N
1507061895.5,286047000.6,N
1507061915.3,286047001.2,N
1507061935.2,286046999.3,N
1507061955.0,286046996.6,N
1507061955.9,286046996.6,N
1507061975.7,286046997.0,N
1507061995.6,286046999.4,N
1507062015.4,286046996.0,N
1507062035.2,286046996.2,N
1507062055.1,286046993.6,N
1507062056.0,286046993.6,N
1507062075.8,286046994.5,N
1507062095.6,286046996.0,N
1507062115.5,286046993.1,N
1507062135.3,286046992.4,N
1507062155.1,286046996.2,N
1507062175.8,286046994.0,N
1507062195.7,286046994.8,N
1507062215.5,286046996.0,N
1507062235.3,286046991.7,N
1507062255.2,286046994.8,N
1507062275.0,286046994.2,N
1507062275.9,286046994.2,N
1507062295.7,286046996.4,N
1507062315.6,286046994.4,N
1507062335.4,286046994.2,N
1507062355.2,286046995.0,N
1507062375.1,286047000.2,N
1507062376.0,286047000.2,N
1507062395.8,286046998.7,N
1507062415.6,286046999.1,N
1507062435.5,286047002.3,N
1507062455.3,286047003.3,N
1507062475.1,286047004.3,N
1507062495.9,286047007.6,N
1507062515.7,286047007.2,N
1507062535.5,286047007.1,N
1507062555.3,286047008.7,N
1507062575.2,286047008.8,N
1507062595.0,286047009.0,N
1507062595.9,286047009.0,N
1507062615.7,286047004.8,N
1507062635.6,286047004.0,N
1507062655.4,286047005.6,N
1507062675.2,286047007.1,N
1507062695.1,286047006.9,N
1507062696.0,286047006.9,N
1507062715.8,286047006.4,N
1507062735.6,286047010.4,N
1507062755.5,286047004.9,N
1507062775.3,286047003.4,N
1507062795.1,286047006.5,N
1507062815.9,286047009.1,N
1507062835.7,286047007.9,N
1507062855.5,286047005.7,N
1507062875.4,286047008.9,N
1507062895.2,286047008.5,N
1507062915.0,286047006.7,N
1507062915.9,286047006.7,N
1507062935.8,286047007.5,N
1507062955.6,286047006.8,N
1507062975.4,286047005.2,N
1507062995.2,286047004.9,N
1507063015.1,286047007.3,Y
1507063016.0,286047007.3,P
1507063035.8,286047000.5,N
1507063055.7,286047003.5,N
1507063075.5,286047006.6,N
1507063095.3,286047008.6,Y
1507063115.2,286047003.6,P
1507063135.9,286047002.7,P
1507063155.7,286046998.8,N
1507063175.6,286046998.4,N
1507063195.4,286046994.9,N
1507063215.2,286046994.7,N
1507063235.0,286046995.8,N
1507063235.9,286046995.8,N
1507063255.8,286046996.2,N
1507063275.6,286046995.9,N
1507063295.4,286046996.1,N
1507063315.3,286046994.0,N
1507063335.1,286046993.9,N
1507063355.8,286046996.4,N
1507063375.7,286046996.3,N
1507063395.5,286046992.6,N
1507063415.3,286046991.5,N
1507063435.2,286046989.3,Y
1507063455.9,286046993.0,P
1507063475.7,286046990.3,P
1507063495.6,286046992.6,N
1507063515.4,286046993.1,N
1507063535.2,286046992.5,Y
1507063555.1,286047001.1,P
1507063556.0,286047001.1,N
1507063575.8,286046999.3,N
1507063595.6,286047000.6,N
1507063615.5,286047000.5,N
1507063635.3,286046998.3,N
1507063655.1,286046998.3,N
1507063675.8,286047000.7,N
1507063695.7,286046999.7,N
1507063715.5,286047001.8,N
1507063735.3,286047004.3,N
1507063755.2,286047003.9,N
1507063775.9,286047001.8,N
1507063795.7,286047000.6,N
1507063815.6,286046998.2,N
1507063835.4,286047002.8,N
1507063855.2,286047003.8,N
1507063875.1,286047004.1,N
1507063876.0,286047004.1,N
1507063895.8,286047003.2,N
1507063915.6,286047006.8,N
1507063935.5,286047008.8,Y
1507063955.3,286047007.0,P
1507063975.1,286047007.5,N
1507063995.9,286047003.9,N
1507064015.7,286047001.0,N
1507064035.5,286047004.2,N
1507064055.4,286047005.5,N
1507064075.2,286047003.0,N
1507064095.0,286047003.7,N
1507064095.9,286047003.7,N
1507064115.7,286047001.8,N
1507064135.6,286047002.4,N
1507064155.4,286047002.1,N
1507064175.2,286047003.6,N
1507064195.1,286047003.4,N
1507064196.0,286047003.4,N
1507064215.8,286047002.2,N
1507064235.6,286046999.1,N
1507064255.5,286047001.9,N
1507064275.3,286047001.1,N
1507064295.1,286046999.3,N
1507064315.9,286046999.2,N
1507064335.7,286047000.8,N
1507064355.5,286046999.2,N
1507064375.4,286046996.5,N
1507064395.2,286046997.0,N
